Theta_e
340 338 339 339 337 333 327 327 320 321 325 327 329 331 331 328 326 324 326 325 329 336 332 330 332 333 330 330 330 325 325 326 322 326 334 335 334 327 323 321 322 327 330
338 338 338 339 338 334 328 329 322 320 325 328 329 330 330 329 327 324 326 325 329 332 326 325 325 324 325 327 329 330 330 329 331 328 321 322 323 323 323 322 319 319 319
337 337 338 338 338 335 328 330 324 322 324 328 330 330 329 328 326 325 326 324 326 326 326 325 324 323 323 324 325 326 327 327 329 331 329 321 322 320 318 317 319 318 318
336 335 337 339 338 336 329 330 327 322 324 326 328 328 326 324 324 325 326 324 324 324 325 324 323 323 323 323 324 326 326 327 330 331 331 325 325 325 318 316 316 316 316
335 334 337 339 338 336 329 330 329 323 324 325 326 326 325 324 325 324 326 325 325 324 325 324 323 323 323 324 325 325 324 326 330 330 331 327 321 324 319 317 317 316 315
333 336 338 339 338 336 330 329 330 324 324 325 324 323 324 324 325 327 327 328 327 326 324 323 323 323 322 322 322 322 322 323 327 330 331 330 323 322 320 320 319 319 318
336 337 339 339 338 337 329 329 329 325 324 324 322 321 321 323 324 325 329 330 328 325 324 323 322 321 321 321 321 322 323 323 327 331 331 331 327 324 323 323 322 321 320
335 339 339 339 338 336 329 328 327 325 324 323 322 320 320 322 323 326 326 329 328 325 322 321 321 321 322 322 324 325 325 327 332 333 332 331 329 327 326 326 326 325 324
336 339 340 339 338 336 328 328 326 325 324 323 321 320 320 321 321 322 323 325 325 323 321 321 320 320 320 325 330 329 328 333 335 336 333 332 330 329 328 330 331 331 329
337 339 338 338 338 335 329 328 325 323 323 323 322 322 321 321 321 321 321 321 320 319 319 320 320 319 320 323 329 333 335 335 335 335 335 331 331 329 333 333 333 332 332
338 338 337 337 337 334 330 329 325 324 324 324 324 324 324 322 322 321 320 319 320 320 319 319 319 320 325 331 334 335 335 335 335 335 335 334 330 333 333 333 332 330 332
337 338 336 336 336 333 331 330 326 324 325 325 325 326 325 324 324 323 323 321 326 325 322 321 321 324 333 336 335 336 336 335 335 333 332 333 332 333 332 330 330 331 332
333 334 334 334 335 333 332 330 327 325 326 327 327 328 327 326 326 327 328 332 332 330 327 325 328 331 333 335 335 336 334 334 332 332 330 330 332 332 332 330 328 334 333
334 332 332 333 333 333 332 330 326 326 327 328 329 330 329 328 329 334 334 335 335 333 331 329 331 332 334 337 336 336 335 333 331 331 328 326 328 328 327 322 329 332 330
336 333 331 332 332 333 332 330 327 326 327 328 330 331 331 330 331 336 337 337 336 335 332 332 334 336 336 337 336 336 333 333 330 326 319 318 318 319 320 322 325 326 324
338 336 333 331 331 331 331 330 327 327 328 329 330 331 332 332 331 336 339 337 336 336 334 335 337 337 337 335 335 334 331 328 320 317 316 317 316 317 319 319 317 317 315
340 338 337 335 331 330 330 329 328 328 328 330 331 332 333 334 333 335 339 339 337 338 337 337 337 337 336 327 326 321 318 317 316 314 314 314 316 316 315 314 312 310 307
343 342 342 340 336 331 330 330 329 329 330 330 331 332 333 335 336 338 340 339 338 338 337 337 337 336 327 321 319 317 315 312 310 310 311 310 309 308 307 306 306 305 305
344 344 343 342 340 334 332 333 333 332 332 332 332 333 334 336 338 340 341 338 338 338 337 337 336 330 322 319 317 314 310 308 308 309 308 307 306 306 306 306 306 305 305
344 344 344 343 341 337 337 337 336 337 337 337 337 337 337 338 341 342 341 338 338 337 337 335 333 322 320 317 313 310 307 307 307 307 307 306 306 306 305 305 304 304 304
342 344 344 344 344 342 340 340 340 339 340 340 341 340 339 339 340 341 340 337 336 336 335 330 323 320 314 311 309 306 308 306 306 306 306 306 306 305 305 304 303 305 305
341 343 343 344 344 344 342 342 341 341 341 342 342 341 340 340 340 341 339 337 336 336 332 325 322 316 312 308 306 304 302 304 307 306 306 306 306 305 304 303 304 304 304
338 340 342 343 344 344 344 342 342 342 341 341 342 343 342 340 339 340 339 337 336 336 332 324 320 320 310 307 306 304 301 301 303 304 306 306 305 304 303 303 303 303 303
331 338 340 343 343 344 344 343 342 342 341 341 341 341 341 339 339 340 338 336 336 333 328 322 320 317 309 307 306 306 305 305 303 302 306 306 305 304 304 303 302 303 304
326 334 339 341 342 343 344 343 342 341 341 340 340 339 340 340 340 339 338 336 333 328 322 320 316 309 306 305 305 306 306 306 306 304 303 303 305 304 303 302 302 302 303
321 332 338 340 341 341 342 343 341 341 341 339 339 337 337 339 339 338 337 334 329 324 320 317 312 307 305 304 305 306 305 306 304 304 302 302 302 304 301 302 302 300 302
Wind_Speed
22 30 27 26 24 23 21 20 20 21 22 22 22 21 20 20 18 17 17 17 17 15 16 16 16 17 17 17 18 18 17 18 16 14 12 11 11 12 13 15 15 12 10
34 32 29 27 26 24 22 21 21 20 20 20 20 19 18 17 16 16 16 16 16 15 16 17 16 15 15 14 14 14 12 11 11 12 11 10 10 11 13 14 14 13 12
37 33 30 28 27 25 23 21 20 20 20 19 18 17 16 15 15 15 14 14 15 15 15 15 14 13 12 12 11 11 11 9 7 4 6 9 10 10 11 12 12 12 12
36 33 31 29 28 26 24 22 20 20 20 19 17 15 14 14 14 13 13 13 13 13 13 12 11 11 10 10 10 9 9 9 8 4 3 5 6 7 10 11 11 10 11
33 32 31 30 29 26 24 22 20 20 20 19 17 15 13 13 12 12 12 11 11 11 10 10 9 8 8 8 8 8 8 10 9 6 4 4 5 4 7 10 10 9 9
32 31 31 31 29 26 24 22 20 19 20 19 17 15 12 11 11 10 10 9 8 8 8 7 6 6 7 6 6 6 7 9 9 9 4 3 3 4 5 8 8 8 8
32 31 31 30 28 26 24 22 20 19 19 18 17 15 12 11 10 10 9 8 7 6 5 5 5 5 5 5 5 6 7 8 10 10 2 5 2 3 5 9 9 9 8
33 31 31 29 27 26 25 22 20 19 18 17 16 15 13 12 10 9 8 7 6 4 4 3 3 4 4 5 7 7 8 9 11 11 10 3 2 2 6 9 10 10 10
32 33 32 29 27 25 25 23 21 19 18 17 16 15 14 12 11 9 8 6 5 3 2 2 2 3 4 5 7 8 9 10 13 15 10 2 4 1 6 8 10 11 11
31 33 32 30 28 27 25 23 22 21 19 17 16 14 14 13 11 10 8 6 5 3 2 1 2 2 3 4 6 8 8 10 12 13 15 6 2 2 6 8 9 12 14
31 33 33 32 30 28 26 25 23 21 20 18 16 14 13 12 11 10 8 6 4 3 2 1 0 1 3 4 4 6 7 9 10 11 12 9 0 3 8 9 11 12 11
34 34 34 33 32 30 29 27 25 24 22 21 19 16 15 12 11 9 8 7 5 3 2 2 2 2 2 4 3 5 7 7 8 10 8 8 5 8 9 12 13 11 11
37 37 36 35 33 33 32 30 29 27 25 23 21 19 16 14 13 11 10 8 6 5 4 5 4 3 1 1 2 3 5 6 6 6 8 7 4 8 7 10 11 9 8
32 37 36 36 36 35 33 33 32 30 28 27 24 22 20 18 17 14 12 10 9 7 6 7 6 5 3 2 1 3 3 6 6 5 7 7 7 7 6 7 7 4 5
35 37 39 37 37 37 36 35 34 33 31 29 27 25 22 21 20 17 15 13 12 11 10 8 7 5 4 3 5 2 2 3 5 4 5 6 6 5 4 4 5 6 7
35 42 41 41 40 40 40 38 37 35 33 31 29 28 25 24 22 20 18 15 15 14 12 9 6 5 5 4 3 2 2 1 1 3 3 4 5 4 4 6 7 8 9
44 44 45 45 45 46 45 43 41 39 37 35 33 30 28 26 25 22 20 19 17 15 13 12 11 8 6 5 5 4 3 2 1 2 4 6 9 9 9 9 9 9 10
34 45 48 47 48 49 49 47 45 43 40 39 36 33 31 29 27 23 21 22 22 18 17 16 14 12 10 8 7 4 2 2 5 9 11 12 12 11 10 10 10 10 11
44 42 43 45 48 51 46 42 41 40 41 40 38 36 34 33 30 27 25 23 21 21 21 18 17 15 12 9 6 3 2 4 8 10 11 10 9 10 10 9 8 9 10
41 39 40 42 42 44 36 36 36 37 41 41 40 37 34 34 31 27 29 27 24 22 21 20 20 16 13 10 7 4 6 9 10 9 9 9 8 7 7 8 9 10 9
32 33 38 38 42 38 36 35 34 38 39 39 41 39 36 35 35 30 32 30 27 26 26 24 21 17 11 10 8 4 5 9 9 7 6 5 3 6 8 10 10 10 11
36 40 35 41 39 44 41 41 33 31 32 35 40 40 39 38 37 34 35 33 31 29 28 27 24 17 9 10 6 3 1 5 10 5 5 2 3 8 11 11 10 13 14
38 36 42 44 47 48 40 33 27 26 24 33 41 43 42 39 40 39 38 35 33 33 33 30 26 22 15 10 10 5 2 4 2 5 6 1 6 11 12 11 14 14 14
41 44 44 44 45 45 43 38 40 39 35 40 35 37 43 39 40 41 39 37 36 35 34 32 27 24 21 15 10 7 4 5 3 3 4 6 5 9 9 12 11 11 10
31 37 44 44 41 41 45 45 42 38 35 29 29 34 40 41 41 41 40 39 38 37 34 32 27 25 22 19 12 9 6 5 4 3 3 3 10 7 11 13 11 12 12
28 32 30 30 39 44 45 46 45 43 35 30 33 32 36 43 44 42 42 42 41 39 36 31 27 24 21 17 15 12 9 5 5 4 1 3 8 9 21 6 9 17 11
Wind_Direction
177 168 163 163 158 152 144 138 135 135 132 131 130 128 125 121 117 117 115 112 109 106 102 100 98 97 97 95 92 89 88 85 85 85 91 89 83 79 75 78 82 86 83
165 166 164 166 162 157 150 145 142 142 138 134 132 129 126 122 119 119 118 116 115 112 108 106 104 102 99 97 93 90 86 84 81 77 78 82 80 76 77 76 76 76 76
164 163 166 168 165 161 155 150 147 147 145 140 136 132 130 127 124 123 122 119 118 116 112 108 105 102 101 97 92 85 76 66 56 73 79 78 80 75 73 69 70 68 70
164 164 167 168 166 163 160 156 153 154 151 146 143 139 135 132 129 127 127 124 121 118 116 114 108 104 99 95 92 82 68 53 43 59 127 104 86 73 66 59 60 59 57
164 165 167 168 167 165 163 162 159 159 157 153 148 145 141 138 135 133 132 129 125 122 120 115 109 104 98 90 85 70 53 58 53 57 111 119 105 92 63 49 47 45 45
165 167 167 168 168 167 166 167 165 162 162 158 152 149 147 145 142 139 136 133 128 124 122 118 111 101 92 83 74 64 51 57 58 49 122 153 108 95 64 45 37 32 31
166 168 168 170 170 170 170 171 170 168 166 164 158 155 155 154 152 150 149 143 134 131 125 114 102 84 73 68 61 55 44 45 52 47 28 191 163 77 39 32 26 17 12
167 168 169 173 172 174 175 175 174 173 172 169 166 162 161 162 160 161 161 157 151 137 126 114 87 65 57 54 47 45 47 52 45 32 34 174 177 57 23 22 19 13 2
170 169 171 173 176 178 178 178 177 176 178 177 174 170 169 170 170 170 170 169 167 156 137 99 74 58 52 53 42 52 58 54 45 36 27 84 173 30 20 14 13 14 4
173 173 174 176 180 181 181 183 181 182 181 182 182 180 177 176 177 179 180 180 178 166 140 82 56 44 44 40 35 43 51 44 39 37 39 42 149 15 8 359 360 8 1
179 181 180 181 184 184 186 186 187 187 186 187 189 189 188 187 187 187 186 182 179 181 167 152 116 66 66 47 42 42 37 33 36 40 36 27 42 333 349 346 350 349 350
184 187 187 187 187 187 189 190 190 191 192 193 195 196 197 198 198 197 196 191 191 194 198 185 179 141 93 76 37 34 24 19 27 22 4 349 329 339 347 354 350 347 345
190 189 191 193 192 192 192 193 194 195 196 198 201 202 201 203 203 203 202 203 207 208 195 186 176 182 225 283 22 53 9 359 356 347 353 333 331 316 329 329 321 329 335
193 195 196 197 195 197 198 198 199 200 201 202 204 206 207 207 207 207 213 220 228 225 198 202 212 234 261 299 349 342 331 1 342 351 348 347 345 336 327 336 10 352 349
194 197 200 201 201 200 202 204 204 205 206 208 209 209 212 213 213 214 218 226 231 229 228 234 233 245 215 228 281 272 334 354 345 353 15 25 16 10 22 32 47 53 57
198 202 202 204 206 207 206 208 209 210 211 213 214 215 216 218 220 221 222 228 232 235 236 229 230 208 212 227 222 225 271 299 340 51 32 44 55 84 82 79 73 68 54
204 203 205 207 207 210 211 211 212 214 214 216 218 218 219 221 219 226 230 229 230 231 222 222 208 209 207 180 158 137 130 97 5 39 85 106 111 101 89 80 66 55 35
203 205 208 207 210 212 214 214 213 215 216 218 220 221 221 220 220 225 230 232 233 216 204 205 203 205 183 168 154 140 101 82 100 114 115 114 106 92 80 69 58 34 22
210 208 208 208 209 211 211 213 215 218 219 221 221 221 222 219 221 227 230 219 211 194 204 210 202 194 181 169 164 161 115 118 122 123 120 110 90 78 76 69 50 38 26
212 211 211 208 208 207 205 208 215 218 223 223 223 222 219 216 217 227 219 210 205 204 204 202 198 188 190 182 175 184 158 138 137 137 128 106 91 69 47 24 7 358 354
213 210 209 204 208 199 198 200 206 211 216 221 224 224 219 219 218 220 212 212 207 204 204 197 187 188 177 183 172 168 168 164 149 138 145 123 86 37 8 5 8 17 6
214 208 208 208 203 203 201 204 207 208 213 217 222 222 222 222 217 215 212 210 206 201 197 196 197 184 182 189 180 146 186 230 227 196 160 119 12 357 356 3 5 359 357
215 209 208 208 206 206 204 198 200 203 215 215 218 221 222 222 220 217 212 211 206 203 200 200 201 211 181 182 200 177 119 224 327 218 194 281 334 344 349 354 352 352 345
218 219 215 211 207 206 199 195 195 199 205 212 209 211 216 217 214 215 211 210 207 203 203 201 203 211 203 181 167 189 170 147 174 318 247 254 304 337 348 352 354 358 356
228 219 214 211 206 205 200 201 197 203 211 208 206 208 212 212 214 211 211 208 205 201 202 203 200 201 202 192 177 161 161 165 175 147 269 291 311 299 337 341 357 2 346
229 223 224 217 210 204 200 201 200 203 202 200 198 199 202 210 209 211 210 210 204 200 200 201 202 199 197 198 192 183 173 165 180 165 226 311 316 313 327 334 352 342 332